Dewpoint
-15 -15 -15 -15 -15 -16 -16 -16 -15 -15 -14 -13 -4 10 13 12 12 12 12 11 11 11 10 9 9 9 10 10 10 9 9 9
-14 -14 -14 -14 -14 -13 -13 -13 -13 -14 -14 -15 -14 -13 2 12 12 11 11 12 12 11 11 10 10 10 10 10 11 10 9 9
-13 -12 -12 -12 -12 -12 -11 -11 -11 -12 -12 -12 -13 -14 -14 -13 -4 4 11 12 12 12 12 11 10 11 11 11 11 11 10 8
-9 -12 -12 -12 -11 -10 -10 -9 -8 -9 -8 -11 -11 -10 -10 -10 -11 -11 -10 -8 3 11 11 12 11 11 11 11 11 11 10 9
-8 -10 -10 -9 -9 -9 -8 -7 -7 -6 -6 -6 -7 -8 -9 -10 -10 -11 -10 -7 -5 -4 10 11 11 11 11 11 11 13 11 10
-7 -7 -8 -8 -7 -7 -7 -6 -6 -6 -6 -7 -6 -7 -7 -6 -6 -7 -8 -8 -7 5 5 5 12 12 12 11 11 12 12 12
-6 -6 -6 -6 -6 -6 -7 -7 -7 -7 -7 -5 -4 -6 -7 -7 -7 -7 -7 -6 -4 1 7 8 7 11 12 13 11 11 12 12
-5 -6 -6 -6 -7 -7 -7 -7 -6 -6 -5 -3 -1 -1 -2 -3 -3 -5 -6 -6 -4 1 1 4 9 9 10 12 12 11 11 12
-4 -4 -5 -6 -7 -7 -7 -6 -6 -6 -3 -2 -2 -1 -0 1 0 -0 -0 -2 -2 -3 -1 1 7 10 9 6 11 11 11 11
-1 -3 -4 -7 -7 -6 -6 -4 -5 -2 -3 -3 -1 -0 -0 0 0 1 2 2 2 0 1 1 1 7 11 9 5 11 11 10
-1 -2 -4 -7 -5 -6 -5 -4 -4 -3 -3 -2 -2 -2 -2 -1 -0 -0 0 1 2 2 2 3 3 4 9 12 11 5 11 11
-1 -1 -2 -4 -3 -5 -4 -3 -3 -2 -2 -2 -2 -2 -2 -2 -2 -2 -1 -1 -1 0 2 3 4 5 5 7 12 11 8 11
-2 -2 -2 -2 -4 -4 -4 -4 -2 -3 -3 -3 -3 -3 -3 -3 -3 -2 -3 -2 -1 -0 -0 1 3 5 5 5 9 12 12 9
-3 -3 -2 -2 -3 -2 -2 -3 -3 -3 -4 -4 -4 -4 -4 -4 -4 -3 -3 -2 -2 -1 -1 -0 1 3 5 6 6 7 10 10
-3 -3 -3 -2 -2 -4 -5 -4 -4 -4 -4 -4 -4 -4 -4 -4 -4 -3 -3 -2 -2 -1 -1 -0 0 1 3 4 7 7 8 9
-3 -4 -3 -2 -2 -5 -6 -4 -3 -4 -4 -5 -5 -5 -5 -5 -5 -4 -4 -3 -2 -2 -1 -0 0 1 1 2 5 6 9 8
-4 -5 -5 -3 -2 -4 -7 -4 -3 -4 -4 -5 -5 -5 -6 -6 -6 -4 -3 -3 -3 -2 -2 -1 0 1 1 2 2 5 7 9
-6 -6 -6 -5 -4 -4 -6 -5 -4 -4 -4 -5 -5 -5 -6 -6 -6 -5 -4 -3 -2 -2 -1 -1 0 0 1 1 2 4 7 9
-10 -7 -8 -9 -8 -6 -8 -6 -5 -4 -5 -5 -5 -5 -6 -7 -7 -5 -4 -3 -2 -1 -1 0 2 2 2 1 1 2 5 7
-20 -12 -16 -17 -16 -8 -9 -13 -6 -4 -5 -5 -5 -5 -7 -7 -7 -6 -5 -3 -2 -2 -1 0 2 2 2 1 2 2 3 5
Wind_Speed
6 6 7 9 11 12 13 14 16 18 17 15 15 14 14 16 19 20 22 23 23 24 23 22 21 21 20 20 19 19 19 16
5 7 9 10 11 12 14 15 16 16 18 18 16 15 15 16 17 19 23 24 24 25 25 25 25 24 23 22 21 21 20 19
8 8 10 11 13 14 15 16 16 16 16 18 16 17 16 16 16 17 20 22 25 25 27 28 28 28 27 26 24 24 22 21
11 12 12 14 15 17 19 20 20 20 20 21 20 19 18 18 18 19 19 20 23 25 27 30 31 32 32 29 28 26 25 23
13 15 17 18 20 22 24 25 23 22 22 22 23 24 25 26 27 25 23 22 21 23 24 28 31 35 35 33 28 25 25 23
15 16 18 20 22 24 25 26 25 25 26 25 25 26 26 26 27 28 28 26 23 20 23 25 29 30 32 37 31 29 29 25
16 17 18 19 19 20 21 22 23 25 25 24 25 28 29 29 28 28 28 29 27 24 23 24 26 31 33 32 33 33 27 28
17 18 18 18 18 19 20 20 21 22 24 24 25 27 29 30 31 29 29 28 29 29 29 28 24 29 31 35 34 39 35 31
15 16 17 18 19 19 19 20 21 22 22 23 25 25 27 28 31 32 29 27 29 31 32 32 30 26 34 33 37 37 40 39
14 15 17 19 19 20 21 20 22 21 24 25 23 24 26 28 31 29 26 27 29 29 31 31 32 29 28 36 37 39 39 43
12 15 17 18 18 19 19 21 22 24 25 25 24 29 31 30 31 33 32 31 30 27 27 25 29 31 32 25 34 39 41 41
11 13 16 18 17 20 19 21 24 23 24 23 27 29 29 27 30 32 33 34 34 31 26 29 25 28 28 33 28 33 39 43
11 13 16 18 19 22 23 26 25 26 25 26 31 26 30 32 29 27 27 26 27 27 29 31 32 21 25 36 38 31 32 40
11 13 15 17 19 17 20 22 22 24 27 29 26 27 28 26 25 28 26 25 26 27 27 30 29 29 23 21 27 38 42 45
11 12 14 15 19 17 21 22 26 28 32 33 31 27 27 25 24 26 27 24 24 25 26 26 29 27 32 22 11 23 24 33
9 12 12 13 17 20 22 25 28 29 31 31 29 27 26 27 27 26 26 25 27 27 25 24 26 29 26 37 37 36 22 24
9 10 11 14 14 20 21 22 23 26 30 31 34 33 29 31 30 31 27 26 25 25 26 26 28 30 31 29 37 39 36 39
8 9 9 12 13 18 19 21 23 27 30 33 37 37 34 34 35 33 30 27 25 25 24 26 28 29 32 33 35 34 31 29
7 8 9 11 13 16 19 20 22 24 28 32 36 39 38 36 36 34 31 29 25 25 26 27 26 29 32 34 35 42 40 41
7 7 9 11 13 14 19 19 21 22 24 28 33 34 36 33 34 32 30 29 27 25 22 23 23 23 25 28 31 36 41 43
Wind_Direction
13 7 359 352 349 346 338 333 325 319 317 319 320 314 295 284 280 276 273 268 262 260 260 260 260 260 262 263 265 267 268 268
356 354 354 352 343 345 337 331 322 318 314 308 305 303 306 296 288 282 277 267 266 265 259 258 259 260 260 263 262 261 261 262
333 341 346 344 334 333 325 319 313 309 307 304 303 297 292 291 292 289 283 280 276 267 264 259 258 260 261 260 262 258 257 257
334 333 333 332 329 327 321 321 313 310 307 294 297 293 293 290 290 293 296 287 284 274 270 265 259 258 259 259 262 265 263 260
334 335 335 332 332 328 326 323 321 316 306 307 298 293 286 285 285 283 282 284 288 283 277 268 262 261 258 258 258 262 263 259
337 338 334 331 328 324 322 321 320 316 316 312 307 298 293 288 282 278 276 272 271 277 284 273 266 264 260 258 249 258 256 259
339 338 333 328 324 320 319 319 318 317 317 315 309 306 301 296 289 281 274 271 268 256 259 277 278 262 261 256 248 245 247 244
342 337 334 333 332 330 328 327 324 324 323 322 318 312 309 305 299 290 279 272 267 263 256 248 254 272 262 257 256 243 245 247
344 340 335 338 340 341 340 338 334 332 329 317 313 313 312 303 298 298 296 284 271 264 261 257 251 257 263 258 255 253 242 240
349 345 343 346 348 349 347 341 338 331 320 319 318 305 295 295 296 292 291 283 280 274 269 263 255 246 264 269 256 251 251 239
359 349 344 349 352 346 347 338 336 330 329 324 315 305 302 297 292 292 285 280 278 271 269 270 269 255 251 254 263 256 249 250
2 350 347 356 349 342 345 341 338 340 328 330 311 310 313 308 302 299 295 288 280 275 271 260 261 267 260 262 251 258 258 248
4 352 356 354 347 355 345 342 345 332 336 314 311 312 305 308 317 316 315 304 296 292 278 273 257 256 284 261 248 240 247 251
6 355 360 349 346 352 338 348 340 337 332 338 335 322 322 318 321 322 316 310 302 297 293 293 274 257 274 276 273 260 249 247
6 355 4 342 346 339 346 353 354 350 349 348 341 335 331 334 312 306 301 294 294 293 290 284 286 277 244 262 267 246 260 256
3 3 2 349 347 340 354 358 357 351 347 347 349 345 346 335 328 318 308 303 287 279 275 279 278 279 274 243 244 270 287 250
3 12 360 344 356 340 350 356 357 353 352 352 356 355 351 342 337 333 326 317 305 295 290 275 266 267 267 263 253 251 259 262
17 13 0 346 355 345 346 353 354 357 354 358 359 357 355 343 342 340 334 326 315 306 293 284 273 269 265 262 256 258 254 262
11 5 358 351 358 352 342 351 355 357 358 1 2 359 355 350 346 343 339 331 321 311 300 290 281 275 265 261 258 249 256 259
346 1 351 357 1 358 340 351 356 354 359 5 7 3 358 351 349 348 344 337 330 321 312 303 290 292 278 258 262 254 252 254
Height
1522 1522 1521 1521 1521 1520 1520 1519 1518 1518 1517 1516 1516 1515 1514 1514 1514 1514 1515 1515 1514 1514 1514 1514 1514 1514 1513 1513 1513 1512 1510 1511
1521 1520 1520 1519 1519 1519 1518 1517 1517 1516 1515 1514 1513 1512 1512 1512 1512 1511 1510 1510 1510 1511 1511 1511 1511 1511 1510 1510 1510 1509 1508 1507
1519 1519 1518 1518 1518 1517 1516 1515 1515 1513 1512 1511 1510 1509 1508 1508 1508 1508 1508 1507 1506 1506 1507 1507 1507 1507 1506 1506 1507 1505 1505 1505
1517 1517 1517 1517 1516 1515 1514 1513 1512 1511 1509 1508 1507 1505 1505 1504 1504 1503 1502 1502 1502 1502 1502 1502 1502 1501 1501 1501 1502 1503 1504 1504
1516 1516 1515 1514 1513 1512 1511 1510 1509 1508 1506 1504 1503 1502 1500 1499 1498 1498 1497 1497 1497 1497 1496 1496 1495 1496 1496 1497 1497 1499 1500 1500
1517 1515 1514 1513 1512 1510 1509 1506 1505 1503 1502 1500 1498 1496 1495 1494 1492 1492 1491 1491 1491 1491 1491 1491 1490 1489 1489 1492 1492 1491 1493 1496
1516 1515 1513 1512 1510 1509 1506 1504 1502 1500 1497 1496 1493 1491 1488 1487 1486 1485 1485 1485 1484 1485 1485 1485 1485 1484 1484 1484 1486 1484 1485 1486
1515 1514 1512 1510 1509 1506 1504 1501 1499 1497 1495 1493 1490 1487 1484 1481 1479 1478 1478 1478 1476 1476 1476 1477 1477 1478 1477 1478 1478 1479 1478 1479
1514 1512 1510 1509 1507 1504 1502 1499 1497 1494 1492 1490 1487 1484 1481 1477 1473 1472 1471 1470 1468 1467 1468 1469 1470 1471 1470 1470 1471 1470 1472 1474
1514 1512 1510 1508 1505 1502 1500 1498 1495 1492 1489 1486 1484 1480 1476 1472 1469 1466 1465 1462 1461 1461 1461 1461 1462 1463 1464 1462 1462 1463 1463 1465
1515 1512 1510 1507 1505 1502 1500 1497 1493 1490 1487 1483 1480 1475 1471 1468 1464 1460 1458 1456 1455 1454 1454 1455 1454 1455 1456 1455 1455 1454 1455 1457
1515 1513 1510 1507 1504 1501 1498 1495 1491 1488 1485 1481 1476 1471 1467 1462 1459 1455 1452 1449 1448 1449 1447 1446 1446 1448 1447 1447 1446 1447 1447 1448
1514 1512 1509 1505 1502 1498 1495 1492 1489 1486 1481 1476 1472 1467 1462 1457 1453 1450 1448 1445 1443 1442 1441 1440 1438 1441 1442 1439 1436 1438 1438 1437
1514 1511 1509 1506 1502 1500 1496 1492 1489 1484 1479 1473 1467 1462 1458 1454 1450 1447 1444 1441 1439 1437 1436 1433 1432 1437 1438 1437 1433 1432 1427 1429
1513 1511 1509 1506 1502 1499 1494 1491 1486 1480 1475 1469 1464 1460 1455 1450 1447 1444 1440 1436 1434 1432 1432 1431 1426 1428 1432 1436 1431 1424 1426 1422
1512 1510 1509 1505 1502 1497 1492 1488 1484 1480 1475 1469 1462 1457 1452 1448 1443 1439 1434 1430 1427 1426 1425 1424 1423 1421 1424 1425 1424 1422 1420 1417
1510 1509 1509 1505 1502 1496 1491 1488 1484 1480 1474 1467 1459 1453 1450 1445 1439 1433 1429 1425 1421 1419 1417 1416 1416 1416 1416 1416 1415 1415 1413 1413
1509 1507 1506 1504 1499 1495 1492 1488 1483 1478 1473 1464 1457 1451 1446 1441 1434 1428 1424 1419 1415 1412 1410 1409 1408 1407 1408 1408 1408 1408 1406 1408
1507 1506 1504 1501 1497 1494 1491 1487 1483 1478 1471 1464 1455 1449 1444 1438 1431 1424 1418 1414 1409 1406 1403 1401 1400 1399 1399 1399 1399 1398 1401 1400
1505 1503 1500 1498 1496 1494 1491 1487 1482 1478 1472 1465 1457 1451 1445 1439 1431 1423 1417 1410 1405 1401 1398 1395 1393 1392 1390 1392 1391 1391 1393 1393